Whiteman AFB, MO

3:13 AM CDT on July 24, 2017 (GMT -0500)
Whiteman Air Force Base

Weather History for KSZL - October, 2012

Change the Weather History Date:

Tuesday, October 23, 2012

  Actual Average Record
Temperature  
Mean Temperature 70 °F -  
Max Temperature 76 °F 63 °F 80 °F (2001)
Min Temperature 64 °F 45 °F 30 °F (2006)
Cooling Degree Days 6    
Growing Degree Days 20 (Base 50)    
Moisture  
Dew Point 67 °F    
Average Humidity 91    
Maximum Humidity 100    
Minimum Humidity 74    
Precipitation  
Precipitation 0.13 in - - ()
Sea Level Pressure  
Sea Level Pressure 29.83 in    
Wind  
Wind Speed 13 mph (South)    
Max Wind Speed 23 mph    
Max Gust Speed 30 mph    
Visibility 10 miles    
Events Rain , Thunderstorm    
Averages and records for this station are not official NWS values.
T = Trace of Precipitation, MM = Missing Value Source: NWS Daily Summary

Daily Weather History Graph

Daily Weather History Graph

Search for Another Location

Airport or City:

Trip Planner

Search our weather history database for the weather conditions in past years. The results will help you decide how hot, cold, wet, or windy it might be!

Date:

Astronomy

Oct. 23, 2012 Rise Set
Actual Time 7:32 AM CDT 6:24 PM CDT
Civil Twilight 7:04 AM CDT 6:51 PM CDT
Nautical Twilight 6:33 AM CDT 7:22 PM CDT
Astronomical Twilight 6:03 AM CDT 7:53 PM CDT
Moon 3:04 PM CDT (10/23) 1:28 AM CDT (10/23)
Length of Visible Light 11h 46m
Length of Day
10h 52m
Waxing Gibbous, 67% of the Moon is Illuminated
Oct 23
Waxing Gibbous
Oct 29
Full
Nov 6
Last Quarter
Nov 13
New
Nov 20
First Quarter

Hourly Weather History & Observations

Time (CDT) Temp. Dew Point Humidity Pressure Visibility Wind Dir Wind Speed Gust Speed Precip Events Conditions
12:22 AM 69.8 °F 68.0 °F 94% 29.87 in 5.0 mi South 11.5 mph - N/A Rain Light Rain
12:38 AM 69.8 °F 68.0 °F 94% 29.87 in 10.0 mi South 11.5 mph - N/A Thunderstorm Mostly Cloudy
12:55 AM 68.9 °F 68.4 °F 98% 29.86 in 10.0 mi South 16.1 mph - 0.00 in Thunderstorm Mostly Cloudy
1:06 AM 69.8 °F 68.0 °F 94% 29.88 in 4.0 mi SSW 17.3 mph 24.2 mph N/A Rain , Thunderstorm Light Thunderstorms and Rain
1:43 AM 68.0 °F 68.0 °F 100% 29.86 in 10.0 mi SSE 12.7 mph - N/A Thunderstorm Overcast
1:55 AM 68.4 °F 68.4 °F 100% 29.86 in 10.0 mi SSE 13.8 mph - 0.09 in   Overcast
2:15 AM 68.0 °F 68.0 °F 100% 29.85 in 10.0 mi SSE 10.4 mph - N/A   Mostly Cloudy
2:54 AM 66.2 °F 66.2 °F 100% 29.85 in 10.0 mi SSE 9.2 mph - N/A Thunderstorm Overcast
2:55 AM 67.1 °F 66.7 °F 99% 29.85 in 10.0 mi SSE 6.9 mph - N/A Thunderstorm Overcast
3:55 AM 67.6 °F 67.6 °F 100% 29.84 in 10.0 mi South 12.7 mph - N/A Thunderstorm Overcast
4:09 AM 68.0 °F 68.0 °F 100% 29.83 in 5.0 mi South 12.7 mph - N/A Rain , Thunderstorm Light Thunderstorms and Rain
4:51 AM 66.2 °F 66.2 °F 100% 29.84 in 10.0 mi South 13.8 mph 19.6 mph N/A Thunderstorm Overcast
4:55 AM 66.4 °F 66.4 °F 100% 29.83 in 10.0 mi South 12.7 mph 19.6 mph 0.03 in Thunderstorm Overcast
5:01 AM 66.2 °F 66.2 °F 100% 29.84 in 10.0 mi South 10.4 mph - N/A Rain , Thunderstorm Light Rain
5:27 AM 66.2 °F 66.2 °F 100% 29.85 in 10.0 mi SSE 9.2 mph - N/A   Overcast
5:55 AM 65.7 °F 65.7 °F 100% 29.86 in 10.0 mi SSE 10.4 mph - 0.01 in   Overcast
6:55 AM 64.9 °F 64.9 °F 100% 29.86 in 10.0 mi SE 9.2 mph - N/A   Overcast
7:55 AM 64.6 °F 64.2 °F 99% 29.86 in 10.0 mi SSE 10.4 mph - N/A   Overcast
9:55 AM 66.6 °F 66.4 °F 99% 29.86 in 10.0 mi SSE 10.4 mph - N/A   Overcast
11:18 AM 69.8 °F 66.2 °F 88% 29.83 in 10.0 mi South 12.7 mph - N/A   Overcast
11:55 AM 72.1 °F 67.6 °F 86% 29.83 in 10.0 mi South 16.1 mph - N/A   Overcast
12:55 PM 72.9 °F 68.2 °F 85% 29.82 in 10.0 mi South 16.1 mph - N/A   Overcast
1:55 PM 73.9 °F 68.9 °F 84% 29.79 in 10.0 mi SSW 16.1 mph - N/A   Overcast
2:55 PM 74.8 °F 68.4 °F 80% 29.78 in 10.0 mi SSW 19.6 mph 29.9 mph N/A   Overcast
3:23 PM 77.0 °F 68.0 °F 74% 29.78 in 10.0 mi South 23.0 mph 28.8 mph N/A   Overcast
3:55 PM 75.6 °F 67.8 °F 77% 29.77 in 10.0 mi SSW 18.4 mph - N/A   Overcast
4:55 PM 75.2 °F 67.3 °F 76% 29.78 in 10.0 mi SSW 18.4 mph 29.9 mph N/A   Mostly Cloudy
5:55 PM 74.3 °F 67.5 °F 79% 29.78 in 10.0 mi South 11.5 mph - N/A   Overcast
6:55 PM 71.6 °F 66.7 °F 85% 29.80 in 10.0 mi South 12.7 mph - N/A   Partly Cloudy
7:55 PM 73.4 °F 66.2 °F 78% 29.82 in 10.0 mi SSW 15.0 mph - N/A   Overcast
8:55 PM 71.8 °F 66.0 °F 82% 29.82 in 10.0 mi South 16.1 mph - N/A   Partly Cloudy
9:55 PM 70.9 °F 65.8 °F 84% 29.83 in 10.0 mi South 12.7 mph - N/A   Clear
10:55 PM 71.1 °F 66.0 °F 84% 29.83 in 10.0 mi SSW 13.8 mph - N/A   Mostly Cloudy
11:55 PM 71.6 °F 66.2 °F 83% 29.84 in 10.0 mi South 15.0 mph - N/A   Mostly Cloudy